Index of /ibuttons

[ICO]NameLast modifiedSizeDescription

[DIR]Parent Directory  -  
[   ]20100212-jacket-hum.dat12-Feb-2012 12:10 0  
[   ]20100212-jacket-temp.dat12-Feb-2012 12:10 0  
[TXT]20100212-jacket.html12-Feb-2012 12:10 28K 
[IMG]20100212-jacket.png12-Feb-2012 12:10 19K 
[   ]20101003-qanun-hum.dat03-Oct-2012 12:44 0  
[   ]20101003-qanun-temp.dat03-Oct-2012 12:44 0  
[TXT]20101003-qanun.html03-Oct-2012 12:44 57K 
[IMG]20101003-qanun.png03-Oct-2012 12:44 17K 
[TXT]20110108-ute.csv08-Jan-2011 14:07 2.5K 
[TXT]20110610-ute.csv10-Jun-2011 14:49 52K 
[   ]20110820-all-txt.dat21-Aug-2011 18:32 104K 
[TXT]20110820-all.csv21-Aug-2011 18:28 89K 
[TXT]20110820-kskap.csv20-Aug-2011 16:00 21K 
[TXT]20110820-sekk-24hr.csv21-Aug-2011 13:27 86K 
[   ]20110820-sekk-24hr.dat21-Aug-2011 13:32 58K 
[TXT]20110820-sekk.csv20-Aug-2011 16:24 50K 
[   ]20110820-sekk.dat20-Aug-2011 18:32 42K 
[TXT]20110820-stue.csv20-Aug-2011 15:58 50K 
[   ]20110820-ute-inne.ai23-Aug-2011 19:45 153K 
[   ]20110820-ute-inne.eps26-Aug-2011 22:37 107K 
[   ]20110820-ute-inne.pdf23-Aug-2011 19:46 163K 
[IMG]20110820-ute-inne.png21-Aug-2011 18:40 19K 
[TXT]20110820-ute.csv20-Aug-2011 16:03 75K 
[   ]20110820-ute.dat21-Aug-2011 15:15 74K 
[TXT]20110821-test.csv21-Aug-2011 13:41 130K 
[   ]20110821-test.dat21-Aug-2011 13:42 102K 
[TXT]20110924-inne-ute.csv24-Sep-2011 11:57 29K 
[TXT]20110928-pocket.csv28-Sep-2011 16:59 5.8K 
[TXT]20111025-oppe.csv25-Oct-2011 11:06 53K 
[   ]20111025-oppe.dat25-Oct-2011 15:55 70K 
[   ]20111106-oxford.cvs06-Nov-2011 18:40 64K 
[TXT]20111213-jakke.csv13-Dec-2011 09:59 115K 
[   ]20111213-jakke.dat13-Dec-2011 10:00 100K 
[TXT]20111214-sekk.csv14-Dec-2011 13:01 51K 
[   ]20120101-qanun-hum.dat01-Jan-2013 14:44 0  
[   ]20120101-qanun-temp.dat01-Jan-2013 14:44 0  
[TXT]20120101-qanun.html01-Jan-2013 14:44 23K 
[IMG]20120101-qanun.png01-Jan-2013 14:44 12K 
[TXT]20120206-jacket-hum.csv07-Feb-2012 11:48 3.7K 
[   ]20120206-jacket-hum.dat07-Feb-2012 11:53 3.2K 
[TXT]20120206-jacket-temp.csv07-Feb-2012 11:48 3.4K 
[   ]20120206-jacket-temp.dat07-Feb-2012 11:49 3.2K 
[   ]20120207-jacket-hum.dat07-Feb-2012 19:24 4.7K 
[   ]20120207-jacket-temp.dat07-Feb-2012 19:23 4.7K 
[   ]20120207-jacket.pdf07-Feb-2012 19:30 95K 
[IMG]20120207-jacket.png07-Feb-2012 19:32 23K 
[   ]20120208-jacket-hum.dat08-Feb-2012 21:10 6.0K 
[   ]20120208-jacket-temp.dat08-Feb-2012 21:10 6.0K 
[   ]20120208-jacket.pdf08-Feb-2012 21:11 104K 
[IMG]20120208-jacket.png08-Feb-2012 21:11 27K 
[TXT]20120209-jacket-hum.csv09-Feb-2012 20:00 8.3K 
[   ]20120209-jacket-hum.dat16-Feb-2012 14:56 7.1K 
[TXT]20120209-jacket-temp.csv09-Feb-2012 20:00 7.6K 
[   ]20120209-jacket-temp.dat16-Feb-2012 14:56 7.1K 
[TXT]20120209-jacket.html16-Feb-2012 14:56 24K 
[   ]20120209-jacket.pdf09-Feb-2012 20:03 87K 
[IMG]20120209-jacket.png16-Feb-2012 14:56 9.7K 
[IMG]20120209-jacket.svg09-Feb-2012 11:09 30K 
[TXT]20120210-jacket-hum.csv10-Feb-2012 11:24 9.1K 
[   ]20120210-jacket-hum.dat11-Feb-2012 22:01 9.5K 
[TXT]20120210-jacket-temp.csv10-Feb-2012 11:24 8.4K 
[   ]20120210-jacket-temp.dat11-Feb-2012 22:01 9.5K 
[TXT]20120210-jacket.html11-Feb-2012 22:01 28K 
[   ]20120210-jacket.pdf10-Feb-2012 21:32 92K 
[IMG]20120210-jacket.png11-Feb-2012 22:01 19K 
[   ]20120212-jacket-hum.dat12-Feb-2012 18:03 11K 
[   ]20120212-jacket-temp.dat12-Feb-2012 18:03 11K 
[   ]20120212-jacket.eps12-Feb-2012 18:04 310K 
[TXT]20120212-jacket.html12-Feb-2012 18:03 31K 
[   ]20120212-jacket.pdf12-Feb-2012 18:05 152K 
[IMG]20120212-jacket.png12-Feb-2012 18:05 30K 
[   ]20120213-jacket-hum.dat23-May-2012 10:41 12K 
[   ]20120213-jacket-temp.dat23-May-2012 10:41 12K 
[TXT]20120213-jacket.html23-May-2012 10:41 35K 
[IMG]20120213-jacket.png23-May-2012 10:41 12K 
[   ]20120214-jacket-hum.dat23-May-2012 10:41 13K 
[   ]20120214-jacket-temp.dat23-May-2012 10:41 13K 
[TXT]20120214-jacket.html23-May-2012 10:41 38K 
[IMG]20120214-jacket.jpg14-Feb-2012 15:53 141K 
[IMG]20120214-jacket.png23-May-2012 10:41 12K 
[   ]20120215-hum.dat16-Feb-2012 14:53 0  
[   ]20120215-jacket-hum.dat23-May-2012 10:42 14K 
[   ]20120215-jacket-temp.dat23-May-2012 10:42 14K 
[TXT]20120215-jacket.html23-May-2012 10:42 34K 
[IMG]20120215-jacket.png23-May-2012 10:42 12K 
[   ]20120216-jacket-hum.dat16-Feb-2012 18:40 15K 
[   ]20120216-jacket-temp.dat16-Feb-2012 18:40 15K 
[TXT]20120216-jacket.html16-Feb-2012 18:40 33K 
[IMG]20120216-jacket.png16-Feb-2012 18:40 12K 
[   ]20120217-jacket-hum.dat23-May-2012 10:42 17K 
[   ]20120217-jacket-temp.dat23-May-2012 10:42 17K 
[TXT]20120217-jacket.html23-May-2012 10:42 37K 
[IMG]20120217-jacket.png23-May-2012 10:42 12K 
[   ]20120218-jacket-hum.dat18-Feb-2012 21:48 18K 
[   ]20120218-jacket-temp.dat18-Feb-2012 21:48 18K 
[TXT]20120218-jacket.html18-Feb-2012 21:48 37K 
[IMG]20120218-jacket.png18-Feb-2012 21:48 12K 
[   ]20120219-jacket-hum.dat23-May-2012 10:42 0  
[   ]20120219-jacket-temp.dat23-May-2012 10:42 0  
[TXT]20120219-jacket.html23-May-2012 10:42 37K 
[IMG]20120219-jacket.png23-May-2012 10:42 12K 
[   ]20120220-jacket-hum.dat23-May-2012 11:15 20K 
[   ]20120220-jacket-temp.dat23-May-2012 11:15 20K 
[TXT]20120220-jacket.html23-May-2012 11:15 43K 
[IMG]20120220-jacket.png23-May-2012 11:15 13K 
[   ]20120221-inne-h.dat21-Feb-2012 21:54 100K 
[   ]20120221-inne-ht.dat21-Feb-2012 21:53 100K 
[   ]20120221-inne-t.dat21-Feb-2012 21:53 50K 
[   ]20120221-jacket-hum.dat23-May-2012 11:15 21K 
[   ]20120221-jacket-temp.dat23-May-2012 11:15 21K 
[TXT]20120221-jacket.html23-May-2012 11:15 45K 
[IMG]20120221-jacket.png23-May-2012 11:15 13K 
[   ]20120221-ute-t.dat21-Feb-2012 21:53 184K 
[   ]20120316-chest.dat23-May-2012 10:39 3.6K 
[TXT]20120316-chest.html23-May-2012 10:39 24K 
[IMG]20120316-chest.png23-May-2012 10:39 7.4K 
[   ]20120316-jacket-hum.dat16-Mar-2012 17:46 49K 
[   ]20120316-jacket-temp.dat16-Mar-2012 17:46 49K 
[TXT]20120316-jacket.html16-Mar-2012 17:46 72K 
[IMG]20120316-jacket.png16-Mar-2012 17:47 12K 
[   ]20120316-sekk.dat16-Mar-2012 12:15 50K 
[TXT]20120316-sekk.html16-Mar-2012 12:15 46K 
[IMG]20120316-sekk.png16-Mar-2012 12:15 7.2K 
[   ]20120317-sekk.dat17-Mar-2012 16:42 2.8K 
[TXT]20120317-sekk.html17-Mar-2012 16:42 21K 
[IMG]20120317-sekk.png17-Mar-2012 16:42 6.3K 
[   ]20120318-chest.dat23-May-2012 10:39 17K 
[TXT]20120318-chest.html23-May-2012 10:39 36K 
[IMG]20120318-chest.png23-May-2012 10:39 9.7K 
[   ]20120318-jacket-hum.dat18-Mar-2012 11:23 2.8K 
[   ]20120318-jacket-temp.dat18-Mar-2012 11:23 2.8K 
[TXT]20120318-jacket.html18-Mar-2012 11:23 22K 
[IMG]20120318-jacket.png18-Mar-2012 11:23 11K 
[   ]20120318-sekk.dat18-Mar-2012 11:14 4.6K 
[TXT]20120318-sekk.html18-Mar-2012 11:14 26K 
[IMG]20120318-sekk.png18-Mar-2012 11:14 8.7K 
[   ]20120320-chest.dat23-May-2012 10:40 0  
[TXT]20120320-chest.html23-May-2012 10:40 36K 
[IMG]20120320-chest.png23-May-2012 10:40 9.7K 
[   ]20120320-jacket-hum.dat23-May-2012 10:42 0  
[   ]20120320-jacket-temp.dat23-May-2012 10:42 0  
[TXT]20120320-jacket.html23-May-2012 10:42 45K 
[IMG]20120320-jacket.png23-May-2012 10:42 13K 
[   ]20120322-outside-hum.dat22-Mar-2013 21:37 0  
[   ]20120322-outside-temp.dat22-Mar-2013 21:37 0  
[TXT]20120322-outside.html22-Mar-2013 21:37 129K 
[IMG]20120322-outside.png22-Mar-2013 21:37 13K 
[   ]20120323-jacket-hum.dat23-May-2012 10:42 8.8K 
[   ]20120323-jacket-temp.dat23-May-2012 10:42 8.8K 
[TXT]20120323-jacket.html23-May-2012 10:42 30K 
[IMG]20120323-jacket.png23-May-2012 10:42 11K 
[   ]20120323-sekk.dat23-May-2012 11:13 17K 
[TXT]20120323-sekk.html23-May-2012 11:13 29K 
[IMG]20120323-sekk.png23-May-2012 11:13 8.1K 
[   ]20120325-jacket-hum.dat23-May-2012 10:43 11K 
[   ]20120325-jacket-temp.dat23-May-2012 10:43 11K 
[TXT]20120325-jacket.html23-May-2012 10:43 35K 
[IMG]20120325-jacket.png23-May-2012 10:43 12K 
[   ]20120328-jacket-hum.dat23-May-2012 10:43 0  
[   ]20120328-jacket-temp.dat23-May-2012 10:43 0  
[TXT]20120328-jacket.html23-May-2012 10:43 35K 
[IMG]20120328-jacket.png23-May-2012 10:43 12K 
[   ]20120328-ute.dat28-Mar-2012 11:15 1.9K 
[TXT]20120328-ute.html28-Mar-2012 11:15 21K 
[IMG]20120328-ute.png28-Mar-2012 11:15 7.3K 
[   ]20120329-ute.dat29-Mar-2012 10:20 4.3K 
[TXT]20120329-ute.html29-Mar-2012 10:20 24K 
[IMG]20120329-ute.png29-Mar-2012 10:20 6.3K 
[   ]20120330-jacket-hum.dat23-May-2012 10:43 17K 
[   ]20120330-jacket-temp.dat23-May-2012 10:43 17K 
[TXT]20120330-jacket.html23-May-2012 10:43 37K 
[IMG]20120330-jacket.png23-May-2012 10:43 11K 
[   ]20120403-jacket-hum.dat23-May-2012 10:43 7.6K 
[   ]20120403-jacket-temp.dat23-May-2012 10:43 7.6K 
[TXT]20120403-jacket.html23-May-2012 10:43 28K 
[IMG]20120403-jacket.png23-May-2012 10:43 11K 
[   ]20120405-jacket-hum.dat23-May-2012 11:11 24K 
[   ]20120405-jacket-temp.dat23-May-2012 11:11 24K 
[TXT]20120405-jacket.html23-May-2012 11:11 47K 
[IMG]20120405-jacket.png23-May-2012 11:11 12K 
[   ]20120422-jacket-hum.dat23-May-2012 11:11 44K 
[   ]20120422-jacket-temp.dat23-May-2012 11:11 44K 
[TXT]20120422-jacket.html23-May-2012 11:11 65K 
[IMG]20120422-jacket.png23-May-2012 11:11 12K 
[   ]20120426-jacket-hum.dat23-May-2012 11:10 0  
[   ]20120426-jacket-temp.dat23-May-2012 11:10 0  
[TXT]20120426-jacket.html23-May-2012 11:10 22K 
[IMG]20120426-jacket.png23-May-2012 11:10 8.8K 
[IMG]20120504-jacket-all.png04-May-2012 16:14 12K 
[   ]20120504-jacket-hum.dat23-May-2012 11:09 4.3K 
[   ]20120504-jacket-temp.dat23-May-2012 11:09 4.3K 
[TXT]20120504-jacket.html23-May-2012 11:09 22K 
[IMG]20120504-jacket.png23-May-2012 11:09 8.8K 
[   ]20120507-jacket-hum.dat23-May-2012 11:09 7.8K 
[   ]20120507-jacket-temp.dat23-May-2012 11:09 7.8K 
[TXT]20120507-jacket.html23-May-2012 11:09 26K 
[IMG]20120507-jacket.png23-May-2012 11:09 9.9K 
[   ]20120518-jacket-hum.dat22-May-2012 09:21 21K 
[   ]20120518-jacket-temp.dat22-May-2012 09:21 21K 
[TXT]20120518-jacket.html22-May-2012 09:21 43K 
[IMG]20120518-jacket.png22-May-2012 09:21 12K 
[   ]20120522-jacket-hum.dat22-May-2012 20:31 26K 
[   ]20120522-jacket-temp.dat22-May-2012 20:31 26K 
[TXT]20120522-jacket.html22-May-2012 20:31 51K 
[IMG]20120522-jacket.png22-May-2012 20:31 13K 
[   ]20120523-2-jacket-hum.dat23-May-2012 16:18 10K 
[   ]20120523-2-jacket-temp.dat23-May-2012 16:18 10K 
[TXT]20120523-2-jacket.html23-May-2012 16:18 32K 
[IMG]20120523-2-jacket.png23-May-2012 16:18 12K 
[   ]20120523-jacket-hum.dat23-May-2012 16:09 27K 
[   ]20120523-jacket-temp.dat23-May-2012 16:09 27K 
[TXT]20120523-jacket.html23-May-2012 16:09 53K 
[IMG]20120523-jacket.png23-May-2012 16:09 12K 
[   ]20120524-outside-hum.dat24-May-2013 14:18 0  
[   ]20120524-outside-outside-hum.dat24-May-2013 14:17 0  
[   ]20120524-outside-outside-temp.dat24-May-2013 14:17 0  
[TXT]20120524-outside-outside.html24-May-2013 14:17 129K 
[IMG]20120524-outside-outside.png24-May-2013 14:17 16K 
[   ]20120524-outside-temp.dat24-May-2013 14:18 0  
[TXT]20120524-outside.html24-May-2013 14:18 129K 
[IMG]20120524-outside.png24-May-2013 14:18 16K 
[   ]20120525-jacket-hum.dat25-May-2012 21:13 29K 
[   ]20120525-jacket-temp.dat25-May-2012 21:13 29K 
[TXT]20120525-jacket.html25-May-2012 21:13 47K 
[IMG]20120525-jacket.png25-May-2012 21:13 12K 
[   ]20120602-jacket-hum.dat02-Jun-2012 11:27 38K 
[   ]20120602-jacket-temp.dat02-Jun-2012 11:27 38K 
[TXT]20120602-jacket.html02-Jun-2012 11:27 59K 
[IMG]20120602-jacket.png02-Jun-2012 11:27 11K 
[   ]20120607-sekk-hum.dat07-Jun-2012 13:21 150  
[   ]20120607-sekk-temp.dat07-Jun-2012 13:21 150  
[TXT]20120607-sekk.html07-Jun-2012 13:21 43K 
[IMG]20120607-sekk.png07-Jun-2012 13:21 12K 
[   ]20120622-sekk-hum.dat22-Jun-2012 14:21 18K 
[   ]20120622-sekk-temp.dat22-Jun-2012 14:21 18K 
[TXT]20120622-sekk.html22-Jun-2012 14:21 38K 
[IMG]20120622-sekk.png22-Jun-2012 14:21 9.7K 
[   ]20120626-jacket-hum.dat26-Jun-2012 14:49 30K 
[   ]20120626-jacket-temp.dat26-Jun-2012 14:49 30K 
[TXT]20120626-jacket.html26-Jun-2012 14:49 48K 
[IMG]20120626-jacket.png26-Jun-2012 14:49 9.1K 
[   ]20120627-jacket-hum.dat27-Jun-2012 15:11 31K 
[   ]20120627-jacket-temp.dat27-Jun-2012 15:11 31K 
[TXT]20120627-jacket.html27-Jun-2012 15:11 49K 
[IMG]20120627-jacket.png27-Jun-2012 15:11 9.2K 
[   ]20120706-jacket-hum.dat06-Jul-2012 14:46 100K 
[   ]20120706-jacket-temp.dat06-Jul-2012 14:46 100K 
[TXT]20120706-jacket.html06-Jul-2012 14:46 130K 
[IMG]20120706-jacket.png06-Jul-2012 14:46 13K 
[   ]20120710-20121003-inne-hum.dat03-Oct-2012 12:56 100K 
[   ]20120710-20121003-inne-temp.dat03-Oct-2012 12:56 100K 
[   ]20120710-20121003-ute-hum.dat03-Oct-2012 12:56 100K 
[TXT]20120710-20121003-ute-inne.html03-Oct-2012 12:56 246K 
[IMG]20120710-20121003-ute-inne.png03-Oct-2012 12:56 18K 
[   ]20120710-20121003-ute-temp.dat03-Oct-2012 12:56 100K 
[   ]20120713-jacket-hum.dat13-Jul-2012 21:00 50K 
[   ]20120713-jacket-temp.dat13-Jul-2012 21:00 50K 
[TXT]20120713-jacket.html13-Jul-2012 21:00 74K 
[IMG]20120713-jacket.png13-Jul-2012 21:00 11K 
[   ]20120716-jacket-hum.dat16-Jul-2012 14:45 18K 
[   ]20120716-jacket-temp.dat16-Jul-2012 14:45 18K 
[TXT]20120716-jacket.htm16-Jul-2012 14:48 40K 
[TXT]20120716-jacket.html16-Jul-2012 14:48 40K 
[IMG]20120716-jacket.png16-Jul-2012 14:49 9.8K 
[   ]20120718-jacket-hum.dat18-Jul-2012 19:32 21K 
[   ]20120718-jacket-temp.dat18-Jul-2012 19:32 21K 
[TXT]20120718-jacket.html18-Jul-2012 19:32 44K 
[IMG]20120718-jacket.png18-Jul-2012 19:32 10K 
[   ]20120726-jacket-hum.dat26-Jul-2012 11:44 36K 
[   ]20120726-jacket-temp.dat26-Jul-2012 11:44 36K 
[TXT]20120726-jacket.html26-Jul-2012 11:44 56K 
[IMG]20120726-jacket.png26-Jul-2012 11:44 11K 
[   ]20120731-jacket-hum.dat31-Jul-2012 14:50 36K 
[   ]20120731-jacket-temp.dat31-Jul-2012 14:50 36K 
[TXT]20120731-jacket.html31-Jul-2012 14:50 56K 
[IMG]20120731-jacket.png31-Jul-2012 14:50 11K 
[   ]20120801-outside-hum.dat01-Aug-2012 16:27 21K 
[   ]20120801-outside-temp.dat01-Aug-2012 16:27 21K 
[TXT]20120801-outside.html01-Aug-2012 16:27 46K 
[IMG]20120801-outside.png01-Aug-2012 16:27 14K 
[   ]20120807-jacket-hum.dat21-Aug-2012 08:26 37K 
[   ]20120807-jacket-temp.dat21-Aug-2012 08:26 37K 
[TXT]20120807-jacket.html21-Aug-2012 08:26 57K 
[IMG]20120807-jacket.png21-Aug-2012 08:26 11K 
[   ]20120808-inne-hum.dat21-Aug-2012 14:49 73K 
[   ]20120808-inne-temp.dat21-Aug-2012 14:49 73K 
[   ]20120808-inne-ute.dat21-Aug-2012 14:01 152K 
[   ]20120808-ute-hum.dat21-Aug-2012 14:49 72K 
[TXT]20120808-ute-inne.html21-Aug-2012 14:49 185K 
[IMG]20120808-ute-inne.png21-Aug-2012 14:49 19K 
[   ]20120808-ute-temp.dat21-Aug-2012 14:49 72K 
[   ]20120904-jacket-hum.dat04-Sep-2012 07:04 40K 
[   ]20120904-jacket-temp.dat04-Sep-2012 07:04 40K 
[TXT]20120904-jacket.html04-Sep-2012 07:04 61K 
[IMG]20120904-jacket.png04-Sep-2012 07:04 11K 
[   ]20120928-sekk-hum.dat28-Sep-2012 08:51 37K 
[   ]20120928-sekk-temp.dat28-Sep-2012 08:51 37K 
[   ]20120928-sekk.dat28-Sep-2012 08:48 0  
[TXT]20120928-sekk.html28-Sep-2012 08:51 56K 
[IMG]20120928-sekk.png28-Sep-2012 08:51 11K 
[   ]20121003-qanun-hum.dat03-Oct-2012 12:45 100K 
[   ]20121003-qanun-temp.dat03-Oct-2012 12:45 100K 
[TXT]20121003-qanun.html03-Oct-2012 12:45 129K 
[IMG]20121003-qanun.png03-Oct-2012 12:45 9.4K 
[   ]20121204-jacket-hum.dat04-Dec-2012 17:21 4.3K 
[   ]20121204-jacket-temp.dat04-Dec-2012 17:21 4.3K 
[TXT]20121204-jacket.html04-Dec-2012 16:39 23K 
[IMG]20121204-jacket.png04-Dec-2012 17:21 11K 
[   ]20121204-sekk.dat04-Dec-2012 16:35 0  
[TXT]20121204-sekk.html04-Dec-2012 16:35 29K 
[IMG]20121204-sekk.png04-Dec-2012 16:35 8.1K 
[   ]20121205-jacket-hum.dat05-Dec-2012 20:48 3.3K 
[   ]20121205-jacket-temp.dat05-Dec-2012 20:48 3.3K 
[IMG]20121205-jacket.png05-Dec-2012 20:48 12K 
[   ]20121207-jacket-hum.dat07-Dec-2012 16:23 7.8K 
[   ]20121207-jacket-temp.dat07-Dec-2012 16:23 7.8K 
[IMG]20121207-jacket.png07-Dec-2012 16:23 12K 
[   ]20121208-jacket-hum.dat08-Dec-2012 17:25 9.0K 
[   ]20121208-jacket-temp.dat08-Dec-2012 17:25 9.0K 
[IMG]20121208-jacket.png08-Dec-2012 17:25 13K 
[   ]20121211-jacket-hum.dat11-Dec-2012 15:17 12K 
[   ]20121211-jacket-temp.dat11-Dec-2012 15:17 12K 
[IMG]20121211-jacket.png11-Dec-2012 15:17 13K 
[   ]20121212-jacket-hum.dat12-Dec-2012 10:01 13K 
[   ]20121212-jacket-temp.dat12-Dec-2012 10:01 13K 
[IMG]20121212-jacket.png12-Dec-2012 10:01 12K 
[   ]20121213-jacket-hum.dat13-Dec-2012 14:07 15K 
[   ]20121213-jacket-temp.dat13-Dec-2012 14:07 15K 
[IMG]20121213-jacket.png13-Dec-2012 14:07 12K 
[   ]20121216-jacket-hum.dat16-Dec-2012 13:14 18K 
[   ]20121216-jacket-temp.dat16-Dec-2012 13:14 18K 
[IMG]20121216-jacket.png16-Dec-2012 13:14 13K 
[   ]20121218-jacket-hum.dat18-Dec-2012 18:37 21K 
[   ]20121218-jacket-temp.dat18-Dec-2012 18:37 21K 
[IMG]20121218-jacket.png18-Dec-2012 18:37 14K 
[   ]20121220-jacket-hum.dat20-Dec-2012 13:26 23K 
[   ]20121220-jacket-temp.dat20-Dec-2012 13:26 23K 
[IMG]20121220-jacket.png20-Dec-2012 13:26 14K 
[   ]20121221-jacket-hum.dat21-Dec-2012 10:20 24K 
[   ]20121221-jacket-temp.dat21-Dec-2012 10:20 24K 
[IMG]20121221-jacket.png21-Dec-2012 10:20 14K 
[   ]20121226-jacket-hum.dat31-Dec-2012 15:50 30K 
[   ]20121226-jacket-temp.dat31-Dec-2012 15:50 30K 
[IMG]20121226-jacket.png31-Dec-2012 15:50 13K 
[   ]20121230-ute.dat31-Dec-2012 15:40 19K 
[TXT]20121230-ute.html31-Dec-2012 15:40 35K 
[IMG]20121230-ute.png31-Dec-2012 15:40 11K 
[   ]20130101-jacket-hum.dat01-Jan-2013 14:23 37K 
[   ]20130101-jacket-temp.dat01-Jan-2013 14:23 37K 
[IMG]20130101-jacket.png01-Jan-2013 14:23 15K 
[   ]20130101-qanun-hum.dat01-Jan-2013 14:58 100K 
[   ]20130101-qanun-temp.dat01-Jan-2013 14:58 100K 
[TXT]20130101-qanun.html01-Jan-2013 14:58 129K 
[IMG]20130101-qanun.png01-Jan-2013 14:58 9.9K 
[   ]20130102-inne-hum.dat02-Jan-2013 12:40 100K 
[   ]20130102-inne-temp.dat02-Jan-2013 12:40 100K 
[   ]20130102-ute-hum.dat02-Jan-2013 12:40 102K 
[TXT]20130102-ute-inne.html02-Jan-2013 12:40 241K 
[IMG]20130102-ute-inne.png02-Jan-2013 12:40 17K 
[   ]20130102-ute-temp.dat02-Jan-2013 12:40 100K 
[   ]20130106-inne-hum.dat06-Jan-2013 22:35 100K 
[   ]20130106-inne-temp.dat06-Jan-2013 22:35 100K 
[   ]20130106-ute-hum.dat06-Jan-2013 22:35 102K 
[TXT]20130106-ute-inne.html06-Jan-2013 22:35 242K 
[IMG]20130106-ute-inne.png06-Jan-2013 22:35 17K 
[   ]20130106-ute-temp.dat06-Jan-2013 22:35 100K 
[   ]20130119-inne-hum.dat19-Jan-2013 15:44 11K 
[   ]20130119-inne-temp.dat19-Jan-2013 15:44 11K 
[   ]20130119-ute-hum.dat19-Jan-2013 15:44 11K 
[TXT]20130119-ute-inne.html19-Jan-2013 15:44 47K 
[IMG]20130119-ute-inne.png19-Jan-2013 15:44 14K 
[   ]20130119-ute-temp.dat19-Jan-2013 15:44 11K 
[   ]20130202-20130428-inne-hum.dat28-Apr-2013 12:43 100K 
[   ]20130202-20130428-inne-temp.dat28-Apr-2013 12:43 100K 
[   ]20130202-20130428-ute-hum.dat28-Apr-2013 12:43 100K 
[TXT]20130202-20130428-ute-inne.html28-Apr-2013 12:43 244K 
[IMG]20130202-20130428-ute-inne.png28-Apr-2013 12:43 20K 
[   ]20130202-20130428-ute-temp.dat28-Apr-2013 12:43 100K 
[   ]20130202-inne-hum.dat28-Apr-2013 12:40 0  
[   ]20130202-inne-temp.dat28-Apr-2013 12:40 0  
[   ]20130202-ute-hum.dat28-Apr-2013 12:40 0  
[TXT]20130202-ute-inne.html28-Apr-2013 12:40 47K 
[IMG]20130202-ute-inne.png28-Apr-2013 12:40 14K 
[   ]20130202-ute-temp.dat28-Apr-2013 12:40 0  
[   ]20130315-jacket-hum.dat16-Mar-2013 10:52 4.3K 
[   ]20130315-jacket-temp.dat16-Mar-2013 10:52 4.3K 
[IMG]20130315-jacket.png16-Mar-2013 10:52 11K 
[   ]20130315-outside-hum.dat16-Mar-2013 10:53 4.3K 
[   ]20130315-outside-temp.dat16-Mar-2013 10:53 4.3K 
[TXT]20130315-outside.html16-Mar-2013 10:53 129K 
[IMG]20130315-outside.png16-Mar-2013 10:53 12K 
[   ]20130315-sekk.dat15-Mar-2013 20:39 0  
[TXT]20130315-sekk.html15-Mar-2013 20:39 35K 
[IMG]20130315-sekk.png15-Mar-2013 20:39 11K 
[   ]20130316-outside-hum.dat16-Mar-2013 18:20 5.5K 
[   ]20130316-outside-temp.dat16-Mar-2013 18:20 5.5K 
[TXT]20130316-outside.html16-Mar-2013 18:20 129K 
[IMG]20130316-outside.png16-Mar-2013 18:20 13K 
[   ]20130317-outside-hum.dat17-Mar-2013 13:10 6.4K 
[   ]20130317-outside-temp.dat17-Mar-2013 13:10 6.4K 
[TXT]20130317-outside.html17-Mar-2013 13:10 129K 
[IMG]20130317-outside.png17-Mar-2013 13:10 13K 
[   ]20130321-outside-hum.dat21-Mar-2013 20:01 11K 
[   ]20130321-outside-temp.dat21-Mar-2013 20:01 11K 
[TXT]20130321-outside.html21-Mar-2013 20:01 129K 
[IMG]20130321-outside.png21-Mar-2013 20:01 13K 
[   ]20130322-outside-hum.dat22-Mar-2013 21:37 13K 
[   ]20130322-outside-temp.dat22-Mar-2013 21:37 13K 
[TXT]20130322-outside.html22-Mar-2013 21:37 129K 
[IMG]20130322-outside.png22-Mar-2013 21:37 14K 
[   ]20130331-jacket-hum.dat31-Mar-2013 15:46 23K 
[   ]20130331-jacket-temp.dat31-Mar-2013 15:46 23K 
[IMG]20130331-jacket.png31-Mar-2013 15:46 14K 
[   ]20130331-outside-hum.dat31-Mar-2013 15:42 23K 
[   ]20130331-outside-temp.dat31-Mar-2013 15:42 23K 
[TXT]20130331-outside.html31-Mar-2013 15:42 129K 
[IMG]20130331-outside.png31-Mar-2013 15:42 15K 
[   ]20130331-sekk.dat31-Mar-2013 15:42 0  
[TXT]20130331-sekk.html31-Mar-2013 15:42 35K 
[IMG]20130331-sekk.png31-Mar-2013 15:42 11K 
[   ]20130407-outside-hum.dat07-Apr-2013 17:42 31K 
[   ]20130407-outside-temp.dat07-Apr-2013 17:42 31K 
[TXT]20130407-outside.html07-Apr-2013 17:42 129K 
[IMG]20130407-outside.png07-Apr-2013 17:42 13K 
[   ]20130419-jacket-hum.dat19-Apr-2013 18:52 45K 
[   ]20130419-jacket-temp.dat19-Apr-2013 18:52 45K 
[IMG]20130419-jacket.png19-Apr-2013 18:52 14K 
[   ]20130419-outside-hum.dat19-Apr-2013 18:52 45K 
[   ]20130419-outside-temp.dat19-Apr-2013 18:52 45K 
[TXT]20130419-outside.html19-Apr-2013 18:52 129K 
[IMG]20130419-outside.png19-Apr-2013 18:52 15K 
[   ]20130420-outside-hum.dat20-Apr-2013 12:10 46K 
[   ]20130420-outside-temp.dat20-Apr-2013 12:10 46K 
[TXT]20130420-outside.html20-Apr-2013 12:10 129K 
[IMG]20130420-outside.png20-Apr-2013 12:10 14K 
[   ]20130502-outside-hum.dat03-May-2013 11:31 61K 
[   ]20130502-outside-temp.dat03-May-2013 11:31 61K 
[TXT]20130502-outside.html03-May-2013 11:31 129K 
[IMG]20130502-outside.png03-May-2013 11:31 16K 
[   ]20130506-outside-hum.dat06-May-2013 20:31 65K 
[   ]20130506-outside-temp.dat06-May-2013 20:31 65K 
[TXT]20130506-outside.html06-May-2013 20:31 129K 
[IMG]20130506-outside.png06-May-2013 20:31 15K 
[   ]20130518-jacket-hum.dat18-May-2013 19:33 79K 
[   ]20130518-jacket-temp.dat18-May-2013 19:33 79K 
[IMG]20130518-jacket.png18-May-2013 19:33 16K 
[   ]20130518-outside-hum.dat19-May-2013 17:12 79K 
[   ]20130518-outside-temp.dat19-May-2013 17:12 79K 
[TXT]20130518-outside.html19-May-2013 17:12 129K 
[IMG]20130518-outside.png19-May-2013 17:12 16K 
[   ]20130524-jacket-hum.dat24-May-2013 14:19 86K 
[   ]20130524-jacket-temp.dat24-May-2013 14:19 86K 
[IMG]20130524-jacket.png24-May-2013 14:19 15K 
[   ]20130524-outside-hum.dat24-May-2013 14:19 86K 
[   ]20130524-outside-temp.dat24-May-2013 14:19 86K 
[TXT]20130524-outside.html24-May-2013 14:19 129K 
[IMG]20130524-outside.png24-May-2013 14:19 16K 
[   ]20130530-outside-hum.dat30-May-2013 18:15 31K 
[   ]20130530-outside-temp.dat30-May-2013 18:15 31K 
[TXT]20130530-outside.html30-May-2013 18:15 129K 
[IMG]20130530-outside.png30-May-2013 18:15 16K 
[   ]20130607-outside-hum.dat07-Jun-2013 18:18 41K 
[   ]20130607-outside-temp.dat07-Jun-2013 18:18 41K 
[TXT]20130607-outside.html07-Jun-2013 18:18 129K 
[IMG]20130607-outside.png07-Jun-2013 18:18 17K 
[   ]20130608-jacket-hum.dat08-Jun-2013 12:04 76K 
[   ]20130608-jacket-temp.dat08-Jun-2013 12:04 76K 
[IMG]20130608-jacket.png08-Jun-2013 12:04 15K 
[   ]20130609-jacket-hum.dat09-Jun-2013 20:30 1.6K 
[   ]20130609-jacket-temp.dat09-Jun-2013 20:30 1.6K 
[IMG]20130609-jacket.png09-Jun-2013 20:30 8.9K 
[IMG]20130618-jacket.png18-Jun-2013 15:11 9.0K 
[   ]20130625-jacket-hum.dat25-Jun-2013 17:01 7.9K 
[   ]20130625-jacket-temp.dat25-Jun-2013 17:01 7.9K 
[IMG]20130625-jacket.png25-Jun-2013 17:10 17K 
[   ]20130625-outside-hum.dat25-Jun-2013 17:02 62K 
[   ]20130625-outside-temp.dat25-Jun-2013 17:02 62K 
[TXT]20130625-outside.html25-Jun-2013 17:02 129K 
[IMG]20130625-outside.png25-Jun-2013 17:02 18K 
[   ]20130701-outside-hum.dat01-Jul-2013 17:38 9.0K 
[   ]20130701-outside-temp.dat01-Jul-2013 17:38 9.0K 
[TXT]20130701-outside.html01-Jul-2013 17:38 129K 
[IMG]20130701-outside.png01-Jul-2013 17:38 13K 
[   ]20130720-outside-hum.dat20-Jul-2013 16:04 58K 
[   ]20130720-outside-temp.dat20-Jul-2013 16:04 58K 
[TXT]20130720-outside.html20-Jul-2013 16:04 129K 
[IMG]20130720-outside.png20-Jul-2013 16:04 18K 
[   ]20130726-outside-hum.dat26-Jul-2013 21:20 30K 
[   ]20130726-outside-temp.dat26-Jul-2013 21:20 30K 
[TXT]20130726-outside.html26-Jul-2013 21:20 129K 
[IMG]20130726-outside.png26-Jul-2013 21:20 16K 
[TXT]20131206-hum-camerabag.csv06-Dec-2013 17:51 123K 
[TXT]20131206-hum-sekk.csv06-Dec-2013 17:52 62K 
[   ]20131206-inne-hum.dat06-Dec-2013 18:06 100K 
[   ]20131206-inne-temp.dat06-Dec-2013 18:06 100K 
[TXT]20131206-temp-camerabag.csv06-Dec-2013 17:52 115K 
[TXT]20131206-temp-sekk.csv06-Dec-2013 17:53 58K 
[   ]20131206-ute-hum.dat06-Dec-2013 18:06 100K 
[TXT]20131206-ute-inne.html06-Dec-2013 18:06 243K 
[IMG]20131206-ute-inne.png06-Dec-2013 18:06 19K 
[   ]20131206-ute-temp.dat06-Dec-2013 18:06 100K 
[TXT]20140129_20140310-hum.csv12-Mar-2014 11:20 59K 
[TXT]20140129_20140310-temp.csv12-Mar-2014 11:20 55K 
[   ]20140421-inne-hum.dat21-Apr-2014 14:42 100K 
[   ]20140421-inne-temp.dat21-Apr-2014 14:42 100K 
[   ]20140421-ute-hum.dat21-Apr-2014 14:42 100K 
[TXT]20140421-ute-inne.html21-Apr-2014 14:42 242K 
[IMG]20140421-ute-inne.png21-Apr-2014 14:42 19K 
[   ]20140421-ute-temp.dat21-Apr-2014 14:42 100K 
[   ]20140422-kontoret-hum.dat22-Apr-2014 15:22 48K 
[   ]20140422-kontoret-temp.dat22-Apr-2014 15:22 48K 
[TXT]20140422-kontoret.html22-Apr-2014 15:22 68K 
[IMG]20140422-kontoret.png22-Apr-2014 15:22 12K 
[   ]20140512-belt-hum.dat12-May-2014 16:08 1.2K 
[   ]20140512-belt-temp.dat12-May-2014 16:08 1.2K 
[IMG]20140512-belt.png12-May-2014 16:08 11K 
[   ]20140514-20140612-inne-hum.dat16-Jun-2014 18:48 0  
[   ]20140514-20140612-inne-temp.dat16-Jun-2014 18:48 0  
[   ]20140514-20140612-ute-hum.dat16-Jun-2014 18:48 35K 
[TXT]20140514-20140612-ute-inne.html16-Jun-2014 18:48 55K 
[IMG]20140514-20140612-ute-inne.png16-Jun-2014 18:48 12K 
[   ]20140514-20140612-ute-temp.dat16-Jun-2014 18:48 35K 
[   ]20140530-arch-hum.dat30-May-2014 10:10 8.7K 
[   ]20140530-arch-temp.dat30-May-2014 10:10 8.7K 
[IMG]20140530-arch.png30-May-2014 10:10 12K 
[   ]20140605-arch-hum.dat05-Jun-2014 09:44 37K 
[   ]20140605-arch-temp.dat05-Jun-2014 09:44 37K 
[TXT]20140605-ute-arch.html05-Jun-2014 09:44 100K 
[IMG]20140605-ute-arch.png05-Jun-2014 09:44 18K 
[IMG]20140605-ute-arch.svg05-Jun-2014 09:28 40K 
[   ]20140605-ute-hum.dat05-Jun-2014 09:44 37K 
[   ]20140605-ute-temp.dat05-Jun-2014 09:44 37K 
[   ]20140612-arch-hum.dat16-Jun-2014 20:51 28K 
[   ]20140612-arch-temp.dat16-Jun-2014 20:51 28K 
[   ]20140612-inne-hum.dat16-Jun-2014 20:17 0  
[   ]20140612-inne-temp.dat16-Jun-2014 20:17 0  
[TXT]20140612-ute-arch.html16-Jun-2014 20:51 90K 
[IMG]20140612-ute-arch.png16-Jun-2014 20:51 19K 
[   ]20140612-ute-hum.dat16-Jun-2014 20:51 28K 
[TXT]20140612-ute-inne.html16-Jun-2014 20:17 55K 
[IMG]20140612-ute-inne.png16-Jun-2014 20:17 12K 
[   ]20140612-ute-temp.dat16-Jun-2014 20:51 28K 
[   ]20140705-inne-hum.dat05-Jul-2014 15:41 24K 
[   ]20140705-inne-temp.dat05-Jul-2014 15:41 24K 
[   ]20140705-ute-hum.dat05-Jul-2014 15:41 24K 
[TXT]20140705-ute-inne.html05-Jul-2014 15:41 80K 
[IMG]20140705-ute-inne.png05-Jul-2014 15:41 22K 
[   ]20140705-ute-temp.dat05-Jul-2014 15:41 24K 
[   ]20140722-inne-hum.dat22-Jul-2014 17:55 44K 
[   ]20140722-inne-temp.dat22-Jul-2014 17:55 44K 
[   ]20140722-ute-hum.dat22-Jul-2014 17:55 44K 
[TXT]20140722-ute-inne.html22-Jul-2014 17:55 118K 
[IMG]20140722-ute-inne.png22-Jul-2014 17:55 22K 
[   ]20140722-ute-temp.dat22-Jul-2014 17:55 44K 
[   ]20140724-inne-hum.dat24-Jul-2014 13:54 8.9K 
[   ]20140724-inne-temp.dat24-Jul-2014 13:54 8.9K 
[   ]20140724-ute-hum.dat24-Jul-2014 13:54 8.9K 
[TXT]20140724-ute-inne.html24-Jul-2014 13:54 41K 
[IMG]20140724-ute-inne.png24-Jul-2014 13:54 19K 
[   ]20140724-ute-temp.dat24-Jul-2014 13:54 8.9K 
[   ]20140724.pdf24-Jul-2014 13:52 96K 
[   ]20140802-ute-hum.dat02-Aug-2014 11:58 17K 
[   ]20140802-ute-temp.dat02-Aug-2014 11:58 17K 
[TXT]20140802-ute.html02-Aug-2014 11:58 36K 
[IMG]20140802-ute.png02-Aug-2014 11:58 14K 
[   ]20140814-2014107-sekk-hum.dat07-Nov-2014 14:27 100K 
[   ]20140814-2014107-sekk-temp.dat07-Nov-2014 14:27 100K 
[   ]20140814-2014107-sekk.dat07-Nov-2014 14:23 0  
[TXT]20140814-2014107-sekk.html07-Nov-2014 14:23 35K 
[IMG]20140814-2014107-sekk.png07-Nov-2014 14:27 13K 
[   ]20150227-20150522-inne-hum.dat23-May-2015 13:20 100K 
[   ]20150227-20150522-inne-temp.dat23-May-2015 13:20 100K 
[   ]20150227-20150522-ute-hum.dat23-May-2015 13:20 100K 
[TXT]20150227-20150522-ute-inne.html23-May-2015 13:20 243K 
[IMG]20150227-20150522-ute-inne.png23-May-2015 13:20 21K 
[   ]20150227-20150522-ute-temp.dat23-May-2015 13:20 100K 
[   ]20150430-20150724-kviljo-hum.dat24-Jul-2015 12:18 20K 
[   ]20150430-20150724-kviljo-temp.dat24-Jul-2015 12:18 20K 
[TXT]20150430-20150724-kviljo.html24-Jul-2015 12:18 43K 
[IMG]20150430-20150724-kviljo.png24-Jul-2015 12:18 14K 
[   ]20150430-20150724-ute-hum.dat24-Jul-2015 11:43 21K 
[   ]20150430-20150724-ute-temp.dat24-Jul-2015 11:43 21K 
[TXT]20150430-20150724-ute.html24-Jul-2015 11:43 0  
[   ]20150531-sekk-hum.dat31-May-2015 19:14 400  
[   ]20150531-sekk-temp.dat31-May-2015 19:14 400  
[TXT]20150531-sekk.html31-May-2015 19:14 129K 
[IMG]20150531-sekk.png31-May-2015 19:14 12K 
[   ]20151002-20151006-sekk-hum.dat06-Oct-2015 14:55 15K 
[   ]20151002-20151006-sekk-sekk-hum.dat06-Oct-2015 14:55 0  
[   ]20151002-20151006-sekk-sekk-temp.dat06-Oct-2015 14:55 0  
[IMG]20151002-20151006-sekk-sekk.png06-Oct-2015 14:55 13K 
[   ]20151002-20151006-sekk-temp.dat06-Oct-2015 14:55 15K 
[IMG]20151002-20151006-sekk.png06-Oct-2015 14:56 12K 
[   ]20160323-20160505-sekk-hum.dat05-May-2016 11:59 50K 
[   ]20160323-20160505-sekk-temp.dat05-May-2016 11:59 50K 
[TXT]20160323-20160505-sekk.html05-May-2016 11:33 73K 
[IMG]20160323-20160505-sekk.png05-May-2016 11:59 15K 
[IMG]20160323-20160505-sekk.svg05-May-2016 11:59 79K 
[   ]20160423-20160604-outside-hum.dat04-Jun-2016 11:45 50K 
[   ]20160423-20160604-outside-temp.dat04-Jun-2016 11:45 50K 
[TXT]20160423-20160604-outside.html04-Jun-2016 11:45 129K 
[IMG]20160423-20160604-outside.png04-Jun-2016 11:45 14K 
[   ]20160504-20160508-temp.dat08-May-2016 20:08 13K 
[IMG]20160504-20160508-temperature.png08-May-2016 20:08 9.2K 
[IMG]20160504-20160508-temperature.svg08-May-2016 20:08 49K 
[IMG]20160504-20160508-temperture.svg08-May-2016 20:04 49K 
[   ]20160504-20160515-chest.dat15-May-2016 09:45 0  
[   ]20160504-20160515-temp-chest.dat15-May-2016 09:45 0  
[   ]20160504-20160515-temp-temp.dat15-May-2016 09:45 0  
[   ]20160504-20160515-temp.dat15-May-2016 14:30 38K 
[IMG]20160504-20160515-temperature.svg15-May-2016 14:30 76K 
[   ]20160504-20160519-temp.dat27-May-2016 19:23 27K 
[IMG]20160504-20160519-temperature.png27-May-2016 19:23 17K 
[IMG]20160504-20160519-temperature.svg27-May-2016 19:23 71K 
[   ]20160615-20160728-kviljo-hum.dat28-Jul-2016 15:23 0  
[   ]20160615-20160728-kviljo-temp.dat28-Jul-2016 15:23 0  
[TXT]20160615-20160728-kviljo.html28-Jul-2016 15:23 43K 
[IMG]20160615-20160728-kviljo.png28-Jul-2016 15:23 14K 
[   ]20160618-jacket-hum.dat18-Jun-2013 15:10 3.4K 
[   ]20160618-jacket-temp.dat18-Jun-2013 15:10 3.4K 
[   ]20160716-20160728-kviljo-hum.dat28-Jul-2016 15:35 15K 
[   ]20160716-20160728-kviljo-temp.dat28-Jul-2016 15:35 15K 
[TXT]20160716-20160728-kviljo.html28-Jul-2016 15:35 35K 
[IMG]20160716-20160728-kviljo.png28-Jul-2016 15:35 13K 
[   ]20160716-20160728-ute-temp.dat28-Jul-2016 15:42 15K 
[IMG]20160716-20160728-ute-temperature.png28-Jul-2016 15:42 17K 
[IMG]20160716-20160728-ute-temperature.svg28-Jul-2016 15:42 55K 
[   ]20170402-20170515-balkong-hum.dat16-May-2017 10:44 50K 
[TXT]20170402-20170515-balkong-temp-hum.txt16-May-2017 11:17 42K 
[   ]20170402-20170515-balkong-temp.dat16-May-2017 10:44 50K 
[TXT]20170402-20170515-balkong.html16-May-2017 10:44 0  
[   ]20170402-20170515-ute-hum.dat15-May-2017 20:12 50K 
[   ]20170402-20170515-ute-temp.dat15-May-2017 20:12 50K 
[TXT]20170402-20170515-ute-ute.html15-May-2017 20:07 44K 
[IMG]20170402-20170515-ute-ute.png15-May-2017 20:07 14K 
[TXT]20170402-20170515-ute.html15-May-2017 20:12 33K 
[IMG]20170402-20170515-ute.png15-May-2017 20:12 7.3K 
[   ]20170414-20170512-kontoret-hum.dat12-May-2017 12:00 100K 
[   ]20170414-20170512-kontoret-temp.dat12-May-2017 12:00 100K 
[TXT]20170414-20170512-kontoret.html12-May-2017 12:00 125K 
[IMG]20170414-20170512-kontoret.png12-May-2017 12:00 12K 
[TXT]20170423-20170515-balkong.html16-May-2017 11:18 51K 
[   ]20170512-office.pdf12-May-2017 12:01 92K 
[TXT]20170515-20170628-ute.html28-Jun-2017 10:56 77K 
[IMG]20170515-20170628-ute.png28-Jun-2017 10:56 18K 
[   ]20170518-20170613-inne-hum.dat14-Jun-2017 11:07 31K 
[   ]20170518-20170613-inne-temp.dat14-Jun-2017 11:07 31K 
[   ]20170518-20170613-sovroer-hum.dat14-Jun-2017 11:07 31K 
[   ]20170518-20170613-stige-temp.dat14-Jun-2017 11:07 31K 
[   ]20170518-20170613-ute-hum.dat14-Jun-2017 11:07 31K 
[   ]20170518-20170613-ute-temp.dat14-Jun-2017 11:07 31K 
[TXT]20170518-20170613-varme.html14-Jun-2017 11:07 123K 
[   ]20170518-20170613-varme.pdf14-Jun-2017 11:10 169K 
[IMG]20170518-20170613-varme.png14-Jun-2017 11:07 27K 

Apache/2.2.22 (Ubuntu) Server at abdallah.hiof.no Port 80